#datetime,building,power
2023-06-25T00:00:00,mcc,42.05
2023-06-25T00:01:00,mcc,42.16
2023-06-25T00:02:00,mcc,42.24
2023-06-25T00:03:00,mcc,44.02
2023-06-25T00:04:00,mcc,44.39
2023-06-25T00:05:00,mcc,43.72
2023-06-25T00:06:00,mcc,43.46
2023-06-25T00:07:00,mcc,43.14
2023-06-25T00:08:00,mcc,42.98
2023-06-25T00:09:00,mcc,43.99
2023-06-25T00:10:00,mcc,42.93
2023-06-25T00:11:00,mcc,43.44
2023-06-25T00:12:00,mcc,43.76
2023-06-25T00:13:00,mcc,44.39
2023-06-25T00:14:00,mcc,43.88
2023-06-25T00:15:00,mcc,50.85
2023-06-25T00:16:00,mcc,44.25
2023-06-25T00:17:00,mcc,43.08
2023-06-25T00:18:00,mcc,43.98
2023-06-25T00:19:00,mcc,43.90
2023-06-25T00:20:00,mcc,43.81
2023-06-25T00:21:00,mcc,43.38
2023-06-25T00:22:00,mcc,42.52
2023-06-25T00:23:00,mcc,42.46
2023-06-25T00:24:00,mcc,41.62
2023-06-25T00:25:00,mcc,43.46
2023-06-25T00:26:00,mcc,43.54
2023-06-25T00:27:00,mcc,44.02
2023-06-25T00:28:00,mcc,42.26
2023-06-25T00:29:00,mcc,40.99
2023-06-25T00:30:00,mcc,41.06
2023-06-25T00:31:00,mcc,41.91
2023-06-25T00:32:00,mcc,42.41
2023-06-25T00:33:00,mcc,43.93
2023-06-25T00:34:00,mcc,42.54
2023-06-25T00:35:00,mcc,42.97
2023-06-25T00:36:00,mcc,42.61
2023-06-25T00:37:00,mcc,43.84
2023-06-25T00:38:00,mcc,44.42
2023-06-25T00:39:00,mcc,44.97
2023-06-25T00:40:00,mcc,45.04
2023-06-25T00:41:00,mcc,44.67
2023-06-25T00:42:00,mcc,44.89
2023-06-25T00:43:00,mcc,44.38
2023-06-25T00:44:00,mcc,43.30
2023-06-25T00:45:00,mcc,44.13
2023-06-25T00:46:00,mcc,43.98
2023-06-25T00:47:00,mcc,43.78
2023-06-25T00:48:00,mcc,42.55
2023-06-25T00:49:00,mcc,42.44
2023-06-25T00:50:00,mcc,42.47
2023-06-25T00:51:00,mcc,41.55
2023-06-25T00:52:00,mcc,42.62
2023-06-25T00:53:00,mcc,41.41
2023-06-25T00:54:00,mcc,41.55
2023-06-25T00:55:00,mcc,48.21
2023-06-25T00:56:00,mcc,41.17
2023-06-25T00:57:00,mcc,41.37
2023-06-25T00:58:00,mcc,42.10
2023-06-25T00:59:00,mcc,42.53
2023-06-25T01:00:00,mcc,42.35
2023-06-25T01:01:00,mcc,42.31
2023-06-25T01:02:00,mcc,41.84
2023-06-25T01:03:00,mcc,41.70
2023-06-25T01:04:00,mcc,42.03
2023-06-25T01:05:00,mcc,42.98
2023-06-25T01:06:00,mcc,42.44
2023-06-25T01:07:00,mcc,41.94
2023-06-25T01:08:00,mcc,41.00
2023-06-25T01:09:00,mcc,39.59
2023-06-25T01:10:00,mcc,39.46
2023-06-25T01:11:00,mcc,39.08
2023-06-25T01:12:00,mcc,39.79
2023-06-25T01:13:00,mcc,39.88
2023-06-25T01:14:00,mcc,39.66
2023-06-25T01:15:00,mcc,39.88
2023-06-25T01:16:00,mcc,41.66
2023-06-25T01:17:00,mcc,42.59
2023-06-25T01:18:00,mcc,43.22
2023-06-25T01:19:00,mcc,43.93
2023-06-25T01:20:00,mcc,43.41
2023-06-25T01:21:00,mcc,43.94
2023-06-25T01:22:00,mcc,42.84
2023-06-25T01:23:00,mcc,43.77
2023-06-25T01:24:00,mcc,43.55
2023-06-25T01:25:00,mcc,44.71
2023-06-25T01:26:00,mcc,42.87
2023-06-25T01:27:00,mcc,42.01
2023-06-25T01:28:00,mcc,41.30
2023-06-25T01:29:00,mcc,37.83
2023-06-25T01:30:00,mcc,37.96
2023-06-25T01:31:00,mcc,38.29
2023-06-25T01:32:00,mcc,38.60
2023-06-25T01:33:00,mcc,38.82
2023-06-25T01:34:00,mcc,39.04
2023-06-25T01:35:00,mcc,39.32
2023-06-25T01:36:00,mcc,38.93
2023-06-25T01:37:00,mcc,39.01
2023-06-25T01:38:00,mcc,40.80
2023-06-25T01:39:00,mcc,42.73
2023-06-25T01:40:00,mcc,44.59
2023-06-25T01:41:00,mcc,44.43
2023-06-25T01:42:00,mcc,44.51
2023-06-25T01:43:00,mcc,47.03
2023-06-25T01:44:00,mcc,43.71
2023-06-25T01:45:00,mcc,41.89
2023-06-25T01:46:00,mcc,40.43
2023-06-25T01:47:00,mcc,40.25
2023-06-25T01:48:00,mcc,42.73
2023-06-25T01:49:00,mcc,41.26
2023-06-25T01:50:00,mcc,43.36
2023-06-25T01:51:00,mcc,40.78
2023-06-25T01:52:00,mcc,43.31
2023-06-25T01:53:00,mcc,42.70
2023-06-25T01:54:00,mcc,44.61
2023-06-25T01:55:00,mcc,53.12
2023-06-25T01:56:00,mcc,41.51
2023-06-25T01:57:00,mcc,41.24
2023-06-25T01:58:00,mcc,42.84
2023-06-25T01:59:00,mcc,42.75
2023-06-25T02:00:00,mcc,43.09
2023-06-25T02:01:00,mcc,41.40
2023-06-25T02:02:00,mcc,40.44
2023-06-25T02:03:00,mcc,39.65
2023-06-25T02:04:00,mcc,41.04
2023-06-25T02:05:00,mcc,41.15
2023-06-25T02:06:00,mcc,47.52
2023-06-25T02:07:00,mcc,48.15
2023-06-25T02:08:00,mcc,45.99
2023-06-25T02:09:00,mcc,45.46
2023-06-25T02:10:00,mcc,39.18
2023-06-25T02:11:00,mcc,41.18
2023-06-25T02:12:00,mcc,45.97
2023-06-25T02:13:00,mcc,43.59
2023-06-25T02:14:00,mcc,42.68
2023-06-25T02:15:00,mcc,42.17
2023-06-25T02:16:00,mcc,41.43
2023-06-25T02:17:00,mcc,41.39
2023-06-25T02:18:00,mcc,42.02
2023-06-25T02:19:00,mcc,45.18
2023-06-25T02:20:00,mcc,43.26
2023-06-25T02:21:00,mcc,41.74
2023-06-25T02:22:00,mcc,41.64
2023-06-25T02:23:00,mcc,39.41
2023-06-25T02:24:00,mcc,38.23
2023-06-25T02:25:00,mcc,39.04
2023-06-25T02:26:00,mcc,40.43
2023-06-25T02:27:00,mcc,39.15
2023-06-25T02:28:00,mcc,42.21
2023-06-25T02:29:00,mcc,42.66
2023-06-25T02:30:00,mcc,40.57
2023-06-25T02:31:00,mcc,40.54
2023-06-25T02:32:00,mcc,39.68
2023-06-25T02:33:00,mcc,39.90
2023-06-25T02:34:00,mcc,40.17
2023-06-25T02:35:00,mcc,48.82
2023-06-25T02:36:00,mcc,42.03
2023-06-25T02:37:00,mcc,41.95
2023-06-25T02:38:00,mcc,40.08
2023-06-25T02:39:00,mcc,39.83
2023-06-25T02:40:00,mcc,41.82
2023-06-25T02:41:00,mcc,43.05
2023-06-25T02:42:00,mcc,42.88
2023-06-25T02:43:00,mcc,43.18
2023-06-25T02:44:00,mcc,44.91
2023-06-25T02:45:00,mcc,43.56
2023-06-25T02:46:00,mcc,45.09
2023-06-25T02:47:00,mcc,44.67
2023-06-25T02:48:00,mcc,45.44
2023-06-25T02:49:00,mcc,42.46
2023-06-25T02:50:00,mcc,41.94
2023-06-25T02:51:00,mcc,42.54
2023-06-25T02:52:00,mcc,42.66
2023-06-25T02:53:00,mcc,42.91
2023-06-25T02:54:00,mcc,41.14
2023-06-25T02:55:00,mcc,47.90
2023-06-25T02:56:00,mcc,41.61
2023-06-25T02:57:00,mcc,39.27
2023-06-25T02:58:00,mcc,40.65
2023-06-25T02:59:00,mcc,40.02
2023-06-25T03:00:00,mcc,40.64
2023-06-25T03:01:00,mcc,40.42
2023-06-25T03:02:00,mcc,38.62
2023-06-25T03:03:00,mcc,41.11
2023-06-25T03:04:00,mcc,39.11
2023-06-25T03:05:00,mcc,38.72
2023-06-25T03:06:00,mcc,38.77
2023-06-25T03:07:00,mcc,39.53
2023-06-25T03:08:00,mcc,39.47
2023-06-25T03:09:00,mcc,41.55
2023-06-25T03:10:00,mcc,41.43
2023-06-25T03:11:00,mcc,43.22
2023-06-25T03:12:00,mcc,39.63
2023-06-25T03:13:00,mcc,39.88
2023-06-25T03:14:00,mcc,40.02
2023-06-25T03:15:00,mcc,41.06
2023-06-25T03:16:00,mcc,50.21
2023-06-25T03:17:00,mcc,42.23
2023-06-25T03:18:00,mcc,43.59
2023-06-25T03:19:00,mcc,41.51
2023-06-25T03:20:00,mcc,43.08
2023-06-25T03:21:00,mcc,43.43
2023-06-25T03:22:00,mcc,42.96
2023-06-25T03:23:00,mcc,43.08
2023-06-25T03:24:00,mcc,43.25
2023-06-25T03:25:00,mcc,43.77
2023-06-25T03:26:00,mcc,43.76
2023-06-25T03:27:00,mcc,54.47
2023-06-25T03:28:00,mcc,42.62
2023-06-25T03:29:00,mcc,42.55
2023-06-25T03:30:00,mcc,42.46
2023-06-25T03:31:00,mcc,42.79
2023-06-25T03:32:00,mcc,42.33
2023-06-25T03:33:00,mcc,42.41
2023-06-25T03:34:00,mcc,42.70
2023-06-25T03:35:00,mcc,42.57
2023-06-25T03:36:00,mcc,48.95
2023-06-25T03:37:00,mcc,41.91
2023-06-25T03:38:00,mcc,41.95
2023-06-25T03:39:00,mcc,41.06
2023-06-25T03:40:00,mcc,42.13
2023-06-25T03:41:00,mcc,44.39
2023-06-25T03:42:00,mcc,44.81
2023-06-25T03:43:00,mcc,46.72
2023-06-25T03:44:00,mcc,46.44
2023-06-25T03:45:00,mcc,45.81
2023-06-25T03:46:00,mcc,44.94
2023-06-25T03:47:00,mcc,43.42
2023-06-25T03:48:00,mcc,43.88
2023-06-25T03:49:00,mcc,43.40
2023-06-25T03:50:00,mcc,41.41
2023-06-25T03:51:00,mcc,43.56
2023-06-25T03:52:00,mcc,44.32
2023-06-25T03:53:00,mcc,41.95
2023-06-25T03:54:00,mcc,41.09
2023-06-25T03:55:00,mcc,40.63
2023-06-25T03:56:00,mcc,41.09
2023-06-25T03:57:00,mcc,40.56
2023-06-25T03:58:00,mcc,41.61
2023-06-25T03:59:00,mcc,39.80
2023-06-25T04:00:00,mcc,40.02
2023-06-25T04:01:00,mcc,41.25
2023-06-25T04:02:00,mcc,40.98
2023-06-25T04:03:00,mcc,40.77
2023-06-25T04:04:00,mcc,41.40
2023-06-25T04:05:00,mcc,41.20
2023-06-25T04:06:00,mcc,41.39
2023-06-25T04:07:00,mcc,41.26
2023-06-25T04:08:00,mcc,40.14
2023-06-25T04:09:00,mcc,39.39
2023-06-25T04:10:00,mcc,40.02
2023-06-25T04:11:00,mcc,40.57
2023-06-25T04:12:00,mcc,41.60
2023-06-25T04:13:00,mcc,40.57
2023-06-25T04:14:00,mcc,45.09
2023-06-25T04:15:00,mcc,45.35
2023-06-25T04:16:00,mcc,45.54
2023-06-25T04:17:00,mcc,55.41
2023-06-25T04:18:00,mcc,47.57
2023-06-25T04:19:00,mcc,56.93
2023-06-25T04:20:00,mcc,57.86
2023-06-25T04:21:00,mcc,55.27
2023-06-25T04:22:00,mcc,43.09
2023-06-25T04:23:00,mcc,43.26
2023-06-25T04:24:00,mcc,43.57
2023-06-25T04:25:00,mcc,45.40
2023-06-25T04:26:00,mcc,44.77
2023-06-25T04:27:00,mcc,52.44
2023-06-25T04:28:00,mcc,43.02
2023-06-25T04:29:00,mcc,42.00
2023-06-25T04:30:00,mcc,39.88
2023-06-25T04:31:00,mcc,40.53
2023-06-25T04:32:00,mcc,40.89
2023-06-25T04:33:00,mcc,39.95
2023-06-25T04:34:00,mcc,41.27
2023-06-25T04:35:00,mcc,39.34
2023-06-25T04:36:00,mcc,37.91
2023-06-25T04:37:00,mcc,48.67
2023-06-25T04:38:00,mcc,40.76
2023-06-25T04:39:00,mcc,40.61
2023-06-25T04:40:00,mcc,41.58
2023-06-25T04:41:00,mcc,42.68
2023-06-25T04:42:00,mcc,43.32
2023-06-25T04:43:00,mcc,45.92
2023-06-25T04:44:00,mcc,44.21
2023-06-25T04:45:00,mcc,47.00
2023-06-25T04:46:00,mcc,44.19
2023-06-25T04:47:00,mcc,44.31
2023-06-25T04:48:00,mcc,44.28
2023-06-25T04:49:00,mcc,43.34
2023-06-25T04:50:00,mcc,46.12
2023-06-25T04:51:00,mcc,45.10
2023-06-25T04:52:00,mcc,42.86
2023-06-25T04:53:00,mcc,45.50
2023-06-25T04:54:00,mcc,45.57
2023-06-25T04:55:00,mcc,44.61
2023-06-25T04:56:00,mcc,43.23
2023-06-25T04:57:00,mcc,43.28
2023-06-25T04:58:00,mcc,51.47
2023-06-25T04:59:00,mcc,44.51
2023-06-25T05:00:00,mcc,44.41
2023-06-25T05:01:00,mcc,41.80
2023-06-25T05:02:00,mcc,41.18
2023-06-25T05:03:00,mcc,39.81
2023-06-25T05:04:00,mcc,39.77
2023-06-25T05:05:00,mcc,40.50
2023-06-25T05:06:00,mcc,40.01
2023-06-25T05:07:00,mcc,41.22
2023-06-25T05:08:00,mcc,41.36
2023-06-25T05:09:00,mcc,41.26
2023-06-25T05:10:00,mcc,39.44
2023-06-25T05:11:00,mcc,38.99
2023-06-25T05:12:00,mcc,39.75
2023-06-25T05:13:00,mcc,38.84
2023-06-25T05:14:00,mcc,40.57
2023-06-25T05:15:00,mcc,41.01
2023-06-25T05:16:00,mcc,42.95
2023-06-25T05:17:00,mcc,44.40
2023-06-25T05:18:00,mcc,42.84
2023-06-25T05:19:00,mcc,44.33
2023-06-25T05:20:00,mcc,44.37
2023-06-25T05:21:00,mcc,42.97
2023-06-25T05:22:00,mcc,42.00
2023-06-25T05:23:00,mcc,41.94
2023-06-25T05:24:00,mcc,42.27
2023-06-25T05:25:00,mcc,42.13
2023-06-25T05:26:00,mcc,42.23
2023-06-25T05:27:00,mcc,41.63
2023-06-25T05:28:00,mcc,41.99
2023-06-25T05:29:00,mcc,42.49
2023-06-25T05:30:00,mcc,42.84
2023-06-25T05:31:00,mcc,41.54
2023-06-25T05:32:00,mcc,41.67
2023-06-25T05:33:00,mcc,40.96
2023-06-25T05:34:00,mcc,41.10
2023-06-25T05:35:00,mcc,41.18
2023-06-25T05:36:00,mcc,41.37
2023-06-25T05:37:00,mcc,40.42
2023-06-25T05:38:00,mcc,49.07
2023-06-25T05:39:00,mcc,40.63
2023-06-25T05:40:00,mcc,40.57
2023-06-25T05:41:00,mcc,40.80
2023-06-25T05:42:00,mcc,39.41
2023-06-25T05:43:00,mcc,38.90
2023-06-25T05:44:00,mcc,38.82
2023-06-25T05:45:00,mcc,40.02
2023-06-25T05:46:00,mcc,41.70
2023-06-25T05:47:00,mcc,43.63
2023-06-25T05:48:00,mcc,44.68
2023-06-25T05:49:00,mcc,46.21
2023-06-25T05:50:00,mcc,43.64
2023-06-25T05:51:00,mcc,43.50
2023-06-25T05:52:00,mcc,42.81
2023-06-25T05:53:00,mcc,44.00
2023-06-25T05:54:00,mcc,45.94
2023-06-25T05:55:00,mcc,44.99
2023-06-25T05:56:00,mcc,44.49
2023-06-25T05:57:00,mcc,41.93
2023-06-25T05:58:00,mcc,48.76
2023-06-25T05:59:00,mcc,40.30
2023-06-25T06:00:00,mcc,41.92
2023-06-25T06:01:00,mcc,42.88
2023-06-25T06:02:00,mcc,40.76
2023-06-25T06:03:00,mcc,40.91
2023-06-25T06:04:00,mcc,40.65
2023-06-25T06:05:00,mcc,42.78
2023-06-25T06:06:00,mcc,44.11
2023-06-25T06:07:00,mcc,45.26
2023-06-25T06:08:00,mcc,54.84
2023-06-25T06:09:00,mcc,46.52
2023-06-25T06:10:00,mcc,46.36
2023-06-25T06:11:00,mcc,45.28
2023-06-25T06:12:00,mcc,45.02
2023-06-25T06:13:00,mcc,45.27
2023-06-25T06:14:00,mcc,46.24
2023-06-25T06:15:00,mcc,44.57
2023-06-25T06:16:00,mcc,44.98
2023-06-25T06:17:00,mcc,43.87
2023-06-25T06:18:00,mcc,43.49
2023-06-25T06:19:00,mcc,42.38
2023-06-25T06:20:00,mcc,42.56
2023-06-25T06:21:00,mcc,42.88
2023-06-25T06:22:00,mcc,45.08
2023-06-25T06:23:00,mcc,44.91
2023-06-25T06:24:00,mcc,45.22
2023-06-25T06:25:00,mcc,47.60
2023-06-25T06:26:00,mcc,46.85
2023-06-25T06:27:00,mcc,47.19
2023-06-25T06:28:00,mcc,47.76
2023-06-25T06:29:00,mcc,46.46
2023-06-25T06:30:00,mcc,45.76
2023-06-25T06:31:00,mcc,45.49
2023-06-25T06:32:00,mcc,45.12
2023-06-25T06:33:00,mcc,42.82
2023-06-25T06:34:00,mcc,42.33
2023-06-25T06:35:00,mcc,42.98
2023-06-25T06:36:00,mcc,42.68
2023-06-25T06:37:00,mcc,42.44
2023-06-25T06:38:00,mcc,50.04
2023-06-25T06:39:00,mcc,42.28
2023-06-25T06:40:00,mcc,41.49
2023-06-25T06:41:00,mcc,41.77
2023-06-25T06:42:00,mcc,41.84
2023-06-25T06:43:00,mcc,41.84
2023-06-25T06:44:00,mcc,41.44
2023-06-25T06:45:00,mcc,40.39
2023-06-25T06:46:00,mcc,40.98
2023-06-25T06:47:00,mcc,42.11
2023-06-25T06:48:00,mcc,53.33
2023-06-25T06:49:00,mcc,42.84
2023-06-25T06:50:00,mcc,41.81
2023-06-25T06:51:00,mcc,35.34
2023-06-25T06:52:00,mcc,34.07
2023-06-25T06:53:00,mcc,34.35
2023-06-25T06:54:00,mcc,35.29
2023-06-25T06:55:00,mcc,37.07
2023-06-25T06:56:00,mcc,38.89
2023-06-25T06:57:00,mcc,39.43
2023-06-25T06:58:00,mcc,47.94
2023-06-25T06:59:00,mcc,39.54
2023-06-25T07:00:00,mcc,36.07
2023-06-25T07:01:00,mcc,35.93
2023-06-25T07:02:00,mcc,36.52
2023-06-25T07:03:00,mcc,37.10
2023-06-25T07:04:00,mcc,35.87
2023-06-25T07:05:00,mcc,38.03
2023-06-25T07:06:00,mcc,36.65
2023-06-25T07:07:00,mcc,35.91
2023-06-25T07:08:00,mcc,33.43
2023-06-25T07:09:00,mcc,33.24
2023-06-25T07:10:00,mcc,32.75
2023-06-25T07:11:00,mcc,33.28
2023-06-25T07:12:00,mcc,33.30
2023-06-25T07:13:00,mcc,33.12
2023-06-25T07:14:00,mcc,32.15
2023-06-25T07:15:00,mcc,33.46
2023-06-25T07:16:00,mcc,34.58
2023-06-25T07:17:00,mcc,34.03
2023-06-25T07:18:00,mcc,39.54
2023-06-25T07:19:00,mcc,33.15
2023-06-25T07:20:00,mcc,32.46
2023-06-25T07:21:00,mcc,33.09
2023-06-25T07:22:00,mcc,33.56
2023-06-25T07:23:00,mcc,34.45
2023-06-25T07:24:00,mcc,32.96
2023-06-25T07:25:00,mcc,33.14
2023-06-25T07:26:00,mcc,36.71
2023-06-25T07:27:00,mcc,37.05
2023-06-25T07:28:00,mcc,36.96
2023-06-25T07:29:00,mcc,37.53
2023-06-25T07:30:00,mcc,36.88
2023-06-25T07:31:00,mcc,37.86
2023-06-25T07:32:00,mcc,39.12
2023-06-25T07:33:00,mcc,39.65
2023-06-25T07:34:00,mcc,37.72
2023-06-25T07:35:00,mcc,37.22
2023-06-25T07:36:00,mcc,36.77
2023-06-25T07:37:00,mcc,35.32
2023-06-25T07:38:00,mcc,34.95
2023-06-25T07:39:00,mcc,35.27
2023-06-25T07:40:00,mcc,37.06
2023-06-25T07:41:00,mcc,35.41
2023-06-25T07:42:00,mcc,35.15
2023-06-25T07:43:00,mcc,35.52
2023-06-25T07:44:00,mcc,35.51
2023-06-25T07:45:00,mcc,35.13
2023-06-25T07:46:00,mcc,35.51
2023-06-25T07:47:00,mcc,35.49
2023-06-25T07:48:00,mcc,33.48
2023-06-25T07:49:00,mcc,33.35
2023-06-25T07:50:00,mcc,34.98
2023-06-25T07:51:00,mcc,32.63
2023-06-25T07:52:00,mcc,32.03
2023-06-25T07:53:00,mcc,34.11
2023-06-25T07:54:00,mcc,34.17
2023-06-25T07:55:00,mcc,31.98
2023-06-25T07:56:00,mcc,40.48
2023-06-25T07:57:00,mcc,34.90
2023-06-25T07:58:00,mcc,34.80
2023-06-25T07:59:00,mcc,34.64
2023-06-25T08:00:00,mcc,33.81
2023-06-25T08:01:00,mcc,35.15
2023-06-25T08:02:00,mcc,34.16
2023-06-25T08:03:00,mcc,32.38
2023-06-25T08:04:00,mcc,32.49
2023-06-25T08:05:00,mcc,30.39
2023-06-25T08:06:00,mcc,30.56
2023-06-25T08:07:00,mcc,30.49
2023-06-25T08:08:00,mcc,30.82
2023-06-25T08:09:00,mcc,32.98
2023-06-25T08:10:00,mcc,32.54
2023-06-25T08:11:00,mcc,32.98
2023-06-25T08:12:00,mcc,33.19
2023-06-25T08:13:00,mcc,33.23
2023-06-25T08:14:00,mcc,33.71
2023-06-25T08:15:00,mcc,43.23
2023-06-25T08:16:00,mcc,35.78
2023-06-25T08:17:00,mcc,34.55
2023-06-25T08:18:00,mcc,34.45
2023-06-25T08:19:00,mcc,34.96
2023-06-25T08:20:00,mcc,35.29
2023-06-25T08:21:00,mcc,35.02
2023-06-25T08:22:00,mcc,34.84
2023-06-25T08:23:00,mcc,33.37
2023-06-25T08:24:00,mcc,32.83
2023-06-25T08:25:00,mcc,32.78
2023-06-25T08:26:00,mcc,31.20
2023-06-25T08:27:00,mcc,32.69
2023-06-25T08:28:00,mcc,33.48
2023-06-25T08:29:00,mcc,33.93
2023-06-25T08:30:00,mcc,34.67
2023-06-25T08:31:00,mcc,33.79
2023-06-25T08:32:00,mcc,33.92
2023-06-25T08:33:00,mcc,35.59
2023-06-25T08:34:00,mcc,34.79
2023-06-25T08:35:00,mcc,39.79
2023-06-25T08:36:00,mcc,38.07
2023-06-25T08:37:00,mcc,38.22
2023-06-25T08:38:00,mcc,41.36
2023-06-25T08:39:00,mcc,41.24
2023-06-25T08:40:00,mcc,34.48
2023-06-25T08:41:00,mcc,35.53
2023-06-25T08:42:00,mcc,34.68
2023-06-25T08:43:00,mcc,34.11
2023-06-25T08:44:00,mcc,34.64
2023-06-25T08:45:00,mcc,34.58
2023-06-25T08:46:00,mcc,35.91
2023-06-25T08:47:00,mcc,35.84
2023-06-25T08:48:00,mcc,35.09
2023-06-25T08:49:00,mcc,35.84
2023-06-25T08:50:00,mcc,35.52
2023-06-25T08:51:00,mcc,34.87
2023-06-25T08:52:00,mcc,37.52
2023-06-25T08:53:00,mcc,38.11
2023-06-25T08:54:00,mcc,45.05
2023-06-25T08:55:00,mcc,53.06
2023-06-25T08:56:00,mcc,34.63
2023-06-25T08:57:00,mcc,35.29
2023-06-25T08:58:00,mcc,35.61
2023-06-25T08:59:00,mcc,39.53
2023-06-25T09:00:00,mcc,39.26
2023-06-25T09:01:00,mcc,39.50
2023-06-25T09:02:00,mcc,37.97
2023-06-25T09:03:00,mcc,38.22
2023-06-25T09:04:00,mcc,38.13
2023-06-25T09:05:00,mcc,39.07
2023-06-25T09:06:00,mcc,38.62
2023-06-25T09:07:00,mcc,35.19
2023-06-25T09:08:00,mcc,34.78
2023-06-25T09:09:00,mcc,34.16
2023-06-25T09:10:00,mcc,32.91
2023-06-25T09:11:00,mcc,31.43
2023-06-25T09:12:00,mcc,30.69
2023-06-25T09:13:00,mcc,30.85
2023-06-25T09:14:00,mcc,39.39
2023-06-25T09:15:00,mcc,33.39
2023-06-25T09:16:00,mcc,32.88
2023-06-25T09:17:00,mcc,34.54
2023-06-25T09:18:00,mcc,34.16
2023-06-25T09:19:00,mcc,35.63
2023-06-25T09:20:00,mcc,34.93
2023-06-25T09:21:00,mcc,34.26
2023-06-25T09:22:00,mcc,34.26
2023-06-25T09:23:00,mcc,33.11
2023-06-25T09:24:00,mcc,33.58
2023-06-25T09:25:00,mcc,32.82
2023-06-25T09:26:00,mcc,33.82
2023-06-25T09:27:00,mcc,32.19
2023-06-25T09:28:00,mcc,32.33
2023-06-25T09:29:00,mcc,33.04
2023-06-25T09:30:00,mcc,34.45
2023-06-25T09:31:00,mcc,35.10
2023-06-25T09:32:00,mcc,34.96
2023-06-25T09:33:00,mcc,36.72
2023-06-25T09:34:00,mcc,36.24
2023-06-25T09:35:00,mcc,43.51
2023-06-25T09:36:00,mcc,38.73
2023-06-25T09:37:00,mcc,36.15
2023-06-25T09:38:00,mcc,35.01
2023-06-25T09:39:00,mcc,34.30
2023-06-25T09:40:00,mcc,34.78
2023-06-25T09:41:00,mcc,34.48
2023-06-25T09:42:00,mcc,34.23
2023-06-25T09:43:00,mcc,35.84
2023-06-25T09:44:00,mcc,35.97
2023-06-25T09:45:00,mcc,36.39
2023-06-25T09:46:00,mcc,42.83
2023-06-25T09:47:00,mcc,44.64
2023-06-25T09:48:00,mcc,42.99
2023-06-25T09:49:00,mcc,45.54
2023-06-25T09:50:00,mcc,44.04
2023-06-25T09:51:00,mcc,42.79
2023-06-25T09:52:00,mcc,42.60
2023-06-25T09:53:00,mcc,42.12
2023-06-25T09:54:00,mcc,51.10
2023-06-25T09:55:00,mcc,42.44
2023-06-25T09:56:00,mcc,42.80
2023-06-25T09:57:00,mcc,42.79
2023-06-25T09:58:00,mcc,49.92
2023-06-25T09:59:00,mcc,49.64
2023-06-25T10:00:00,mcc,49.11
2023-06-25T10:01:00,mcc,50.09
2023-06-25T10:02:00,mcc,41.53
2023-06-25T10:03:00,mcc,41.59
2023-06-25T10:04:00,mcc,41.54
2023-06-25T10:05:00,mcc,40.95
2023-06-25T10:06:00,mcc,40.77
2023-06-25T10:07:00,mcc,40.95
2023-06-25T10:08:00,mcc,41.69
2023-06-25T10:09:00,mcc,40.69
2023-06-25T10:10:00,mcc,41.22
2023-06-25T10:11:00,mcc,40.96
2023-06-25T10:12:00,mcc,39.62
2023-06-25T10:13:00,mcc,39.26
2023-06-25T10:14:00,mcc,47.23
2023-06-25T10:15:00,mcc,41.08
2023-06-25T10:16:00,mcc,42.04
2023-06-25T10:17:00,mcc,40.83
2023-06-25T10:18:00,mcc,40.80
2023-06-25T10:19:00,mcc,40.45
2023-06-25T10:20:00,mcc,41.44
2023-06-25T10:21:00,mcc,42.76
2023-06-25T10:22:00,mcc,42.50
2023-06-25T10:23:00,mcc,43.82
2023-06-25T10:24:00,mcc,43.81
2023-06-25T10:25:00,mcc,43.54
2023-06-25T10:26:00,mcc,43.76
2023-06-25T10:27:00,mcc,43.64
2023-06-25T10:28:00,mcc,42.96
2023-06-25T10:29:00,mcc,43.04
2023-06-25T10:30:00,mcc,41.71
2023-06-25T10:31:00,mcc,41.64
2023-06-25T10:32:00,mcc,41.53
2023-06-25T10:33:00,mcc,40.46
2023-06-25T10:34:00,mcc,39.04
2023-06-25T10:35:00,mcc,48.47
2023-06-25T10:36:00,mcc,41.16
2023-06-25T10:37:00,mcc,41.61
2023-06-25T10:38:00,mcc,41.17
2023-06-25T10:39:00,mcc,42.05
2023-06-25T10:40:00,mcc,39.15
2023-06-25T10:41:00,mcc,39.02
2023-06-25T10:42:00,mcc,39.80
2023-06-25T10:43:00,mcc,40.79
2023-06-25T10:44:00,mcc,40.99
2023-06-25T10:45:00,mcc,40.36
2023-06-25T10:46:00,mcc,40.08
2023-06-25T10:47:00,mcc,40.00
2023-06-25T10:48:00,mcc,38.66
2023-06-25T10:49:00,mcc,39.15
2023-06-25T10:50:00,mcc,40.32
2023-06-25T10:51:00,mcc,42.17
2023-06-25T10:52:00,mcc,42.16
2023-06-25T10:53:00,mcc,40.76
2023-06-25T10:54:00,mcc,40.48
2023-06-25T10:55:00,mcc,47.64
2023-06-25T10:56:00,mcc,40.28
2023-06-25T10:57:00,mcc,41.07
2023-06-25T10:58:00,mcc,40.60
2023-06-25T10:59:00,mcc,41.06
2023-06-25T11:00:00,mcc,42.42
2023-06-25T11:01:00,mcc,39.54
2023-06-25T11:02:00,mcc,39.71
2023-06-25T11:03:00,mcc,42.32
2023-06-25T11:04:00,mcc,42.53
2023-06-25T11:05:00,mcc,43.86
2023-06-25T11:06:00,mcc,42.27
2023-06-25T11:07:00,mcc,43.17
2023-06-25T11:08:00,mcc,41.92
2023-06-25T11:09:00,mcc,40.83
2023-06-25T11:10:00,mcc,42.52
2023-06-25T11:11:00,mcc,38.65
2023-06-25T11:12:00,mcc,37.95
2023-06-25T11:13:00,mcc,37.73
2023-06-25T11:14:00,mcc,37.50
2023-06-25T11:15:00,mcc,44.44
2023-06-25T11:16:00,mcc,38.47
2023-06-25T11:17:00,mcc,39.98
2023-06-25T11:18:00,mcc,40.41
2023-06-25T11:19:00,mcc,40.31
2023-06-25T11:20:00,mcc,41.06
2023-06-25T11:21:00,mcc,42.59
2023-06-25T11:22:00,mcc,42.10
2023-06-25T11:23:00,mcc,43.82
2023-06-25T11:24:00,mcc,43.02
2023-06-25T11:25:00,mcc,41.91
2023-06-25T11:26:00,mcc,41.85
2023-06-25T11:27:00,mcc,41.83
2023-06-25T11:28:00,mcc,40.00
2023-06-25T11:29:00,mcc,39.61
2023-06-25T11:30:00,mcc,40.36
2023-06-25T11:31:00,mcc,40.51
2023-06-25T11:32:00,mcc,40.82
2023-06-25T11:33:00,mcc,40.18
2023-06-25T11:34:00,mcc,41.78
2023-06-25T11:35:00,mcc,41.98
2023-06-25T11:36:00,mcc,42.17
2023-06-25T11:37:00,mcc,43.07
2023-06-25T11:38:00,mcc,44.28
2023-06-25T11:39:00,mcc,43.90
2023-06-25T11:40:00,mcc,43.99
2023-06-25T11:41:00,mcc,43.57
2023-06-25T11:42:00,mcc,42.59
2023-06-25T11:43:00,mcc,42.16
2023-06-25T11:44:00,mcc,42.13
2023-06-25T11:45:00,mcc,40.53
2023-06-25T11:46:00,mcc,40.47
2023-06-25T11:47:00,mcc,40.86
2023-06-25T11:48:00,mcc,40.84
2023-06-25T11:49:00,mcc,40.75
2023-06-25T11:50:00,mcc,40.01
2023-06-25T11:51:00,mcc,40.19
2023-06-25T11:52:00,mcc,38.78
2023-06-25T11:53:00,mcc,39.68
2023-06-25T11:54:00,mcc,39.95
2023-06-25T11:55:00,mcc,40.21
2023-06-25T11:56:00,mcc,48.13
2023-06-25T11:57:00,mcc,39.68
2023-06-25T11:58:00,mcc,39.56
2023-06-25T11:59:00,mcc,40.03
2023-06-25T12:00:00,mcc,39.95
2023-06-25T12:01:00,mcc,40.04
2023-06-25T12:02:00,mcc,39.26
2023-06-25T12:03:00,mcc,39.38
2023-06-25T12:04:00,mcc,39.31
2023-06-25T12:05:00,mcc,41.72
2023-06-25T12:06:00,mcc,43.63
2023-06-25T12:07:00,mcc,43.44
2023-06-25T12:08:00,mcc,43.55
2023-06-25T12:09:00,mcc,43.37
2023-06-25T12:10:00,mcc,45.05
2023-06-25T12:11:00,mcc,44.22
2023-06-25T12:12:00,mcc,44.56
2023-06-25T12:13:00,mcc,44.13
2023-06-25T12:14:00,mcc,42.00
2023-06-25T12:15:00,mcc,42.36
2023-06-25T12:16:00,mcc,50.90
2023-06-25T12:17:00,mcc,43.55
2023-06-25T12:18:00,mcc,43.81
2023-06-25T12:19:00,mcc,43.52
2023-06-25T12:20:00,mcc,43.46
2023-06-25T12:21:00,mcc,42.47
2023-06-25T12:22:00,mcc,43.35
2023-06-25T12:23:00,mcc,43.11
2023-06-25T12:24:00,mcc,42.97
2023-06-25T12:25:00,mcc,43.43
2023-06-25T12:26:00,mcc,44.16
2023-06-25T12:27:00,mcc,43.24
2023-06-25T12:28:00,mcc,43.95
2023-06-25T12:29:00,mcc,44.08
2023-06-25T12:30:00,mcc,43.62
2023-06-25T12:31:00,mcc,42.96
2023-06-25T12:32:00,mcc,42.05
2023-06-25T12:33:00,mcc,42.08
2023-06-25T12:34:00,mcc,42.72
2023-06-25T12:35:00,mcc,41.60
2023-06-25T12:36:00,mcc,50.10
2023-06-25T12:37:00,mcc,41.31
2023-06-25T12:38:00,mcc,42.53
2023-06-25T12:39:00,mcc,42.54
2023-06-25T12:40:00,mcc,42.11
2023-06-25T12:41:00,mcc,42.72
2023-06-25T12:42:00,mcc,42.70
2023-06-25T12:43:00,mcc,42.65
2023-06-25T12:44:00,mcc,42.20
2023-06-25T12:45:00,mcc,42.31
2023-06-25T12:46:00,mcc,40.56
2023-06-25T12:47:00,mcc,41.20
2023-06-25T12:48:00,mcc,41.63
2023-06-25T12:49:00,mcc,41.80
2023-06-25T12:50:00,mcc,41.57
2023-06-25T12:51:00,mcc,39.88
2023-06-25T12:52:00,mcc,40.34
2023-06-25T12:53:00,mcc,40.89
2023-06-25T12:54:00,mcc,42.12
2023-06-25T12:55:00,mcc,41.84
2023-06-25T12:56:00,mcc,42.32
2023-06-25T12:57:00,mcc,41.68
2023-06-25T12:58:00,mcc,40.93
2023-06-25T12:59:00,mcc,40.06
2023-06-25T13:00:00,mcc,41.26
2023-06-25T13:01:00,mcc,40.87
2023-06-25T13:02:00,mcc,41.55
2023-06-25T13:03:00,mcc,42.67
2023-06-25T13:04:00,mcc,43.20
2023-06-25T13:05:00,mcc,42.91
2023-06-25T13:06:00,mcc,40.70
2023-06-25T13:07:00,mcc,40.65
2023-06-25T13:08:00,mcc,40.34
2023-06-25T13:09:00,mcc,43.42
2023-06-25T13:10:00,mcc,42.38
2023-06-25T13:11:00,mcc,42.16
2023-06-25T13:12:00,mcc,40.74
2023-06-25T13:13:00,mcc,40.52
2023-06-25T13:14:00,mcc,34.80
2023-06-25T13:15:00,mcc,35.78
2023-06-25T13:16:00,mcc,34.97
2023-06-25T13:17:00,mcc,41.40
2023-06-25T13:18:00,mcc,31.99